Regional Weather Roundup
Issued by NWS

Home | Current Version | Previous Version | Graphics & Text | Print | Product List | Glossary On
Versions: 1 2 3 4 5 6 7 8 9 10 11 12 13 14 15 16 17 18 19 20 21 22 23 24 25 26 27 28 29 30 31 32 33 34 35 36 37 38 39 40 41 42 43 44 45 46 47 48 49 50
000
ASUS43 KIND 222109
RWRIN

WEATHER ROUNDUP FOR INDIANA
NATIONAL WEATHER SERVICE INDIANAPOLIS IN
400 PM EST SUN JAN 22 2017

NOTE: "FAIR" INDICATES FEW OR NO CLOUDS BELOW 12,000 FEET WITH NO
SIGNIFICANT WEATHER AND/OR OBSTRUCTIONS TO VISIBILITY.

* - STATION DOES NOT REPORT WEATHER SUCH AS PRECIPITATION OR FOG.

+ - STATION NOT QUALITY CONTROLLED BY THE NATIONAL WEATHER SERVICE.
    USE DATA WITH CAUTION...ESPECIALLY DEWPOINT AND RELATIVE
    HUMIDITY OBSERVATIONS.

INZ001>003-010>013-019-020-222200-
NORTHWEST INDIANA

CITY           SKY/WX    TMP DP  RH WIND       PRES   REMARKS
KNOX *+        CLOUDY    43  37  81 N9        29.57S
LA PORTE +     CLOUDY    43  41  94 N12       29.59S
MICHIGAN CITY+ FOG       39  39 100 N7        29.61R VSB 1/2
MONTICELLO +   PTSUNNY   53  47  80 N8        29.53R
RENSSELAER +   CLOUDY    43  43 100 N12       29.56S FOG
VALPARAISO     CLOUDY    43  41  93 N13       29.59S

$$

LMZ046-743>745-222200-
SOUTHERN LAKE MICHIGAN

STATION/POSITION TIME  TEMP    WIND        PRES    WAVE
                       AIR SEA DIR/SP/G            HT
                 (UTC) (F)     (DEG/KT/KT) (MB)    (FT)
BURNS HARBOR     2040   36      40/  5/  5 1003.7R
MICHIGAN CITY    2040   36     360/  5/  5   N/A

$$

INZ004-005-014>016-021>024-222200-
NORTH CENTRAL INDIANA

CITY           SKY/WX    TMP DP  RH WIND       PRES   REMARKS
ELKHART        CLOUDY    43  41  93 N5        29.58S FOG
GOSHEN         CLOUDY    50  46  86 NE7       29.57R
LOGANSPORT +   CLOUDY    54  48  82 N12       29.54S
PERU/GRISSOM   PTSUNNY   56  53  86 N12       29.52R
ROCHESTER +    MOSUNNY   54  48  82 N8        29.55S
SOUTH BEND     FOG       43  43 100 N8        29.59S VSB 1/2
WARSAW +       CLOUDY    50  50 100 N7        29.56S

$$

INZ006>009-017-018-025>027-222200-
NORTHEAST INDIANA

CITY           SKY/WX    TMP DP  RH WIND       PRES   REMARKS
ANGOLA *+      CLOUDY    52  39  62 N3        29.56S
AUBURN +       CLOUDY    55  48  76 N10       29.56R
FORT WAYNE     CLOUDY    57  49  74 N8        29.54R
HUNTINGTON +   CLOUDY    56  52  85 N7        29.53S
KENDALLVILLE + CLOUDY    51  49  93 N7        29.57R

$$

INZ028-029-035-036-043>045-051>053-222200-
WEST CENTRAL INDIANA

CITY           SKY/WX    TMP DP  RH WIND       PRES   REMARKS
CRAWFORDSVL +  CLOUDY    56  54  92 N10       29.50R
GREENCASTLE +  PTSUNNY   59  52  77 N10       29.48S
LAFAYETTE      CLOUDY    52  49  89 N10       29.53R
TERRE HAUTE    CLOUDY    61  50  67 N12       29.47S

$$

INZ030>032-037>040-046>048-054>057-064-065-222200-
CENTRAL INDIANA

CITY           SKY/WX    TMP DP  RH WIND       PRES   REMARKS
CP ATTERBURY + CLOUDY    59  52  77 N9        29.47S
COLUMBUS       MOSUNNY   59  55  88 N10       29.46F
FISHERS *+     CLOUDY    59  54  82 N3        29.49S
FRANKFORT +    CLOUDY    59  54  83 NE12      29.53S
GREENWOOD *+   CLOUDY    60  54  80 NE7       29.48S
INDIANAPOLIS   CLOUDY    60  50  69 NE8       29.47S
-EAGLE CREEK   CLOUDY    61  51  70 N9        29.48S
KOKOMO +       PTSUNNY   57  52  83 N12       29.54R
MARION +       CLOUDY    61  52  72 NE8       29.53R
MT COMFORT *+  CLOUDY    57  54  88 N8        29.49S
SHELBYVILLE    CLOUDY    60  51  72 N8        29.46F
ZIONSVILLE +   MOSUNNY   58  53  83 N12       29.50S

$$

INZ033-034-041-042-049-050-058-059-222200-
EAST CENTRAL INDIANA

CITY           SKY/WX    TMP DP  RH WIND       PRES   REMARKS
MUNCIE         CLOUDY    62  51  67 N10       29.50S

$$

INZ060-061-067>069-081>083-085>088-222200-
SOUTHWEST INDIANA

CITY           SKY/WX    TMP DP  RH WIND       PRES   REMARKS
EVANSVILLE     CLOUDY    62  51  67 NE12      29.39F
HUNTINGBURG *+ CLOUDY    61  52  72 NE9       29.40F
WASHINGTON +   PTSUNNY   59  52  77 N8        29.42S

$$

INZ062-063-066-070>080-084-089>092-222200-
SOUTH CENTRAL AND SOUTHEAST INDIANA

CITY           SKY/WX    TMP DP  RH WIND       PRES   REMARKS
BLOOMINGTON    CLOUDY    59  49  69 N12       29.45S
MADISON *+     PTSUNNY   61  48  63 NE12      29.45S
NORTH VERNON + CLOUDY    61  52  72 NE9       29.45S
SEYMOUR +      PTSUNNY   61  52  72 NE8       29.44S

$$




USA.gov is the U.S. government's official web portal to all federal, state and local government web resources and services.